Weather History for Dover AFB, DE

Change the Weather History Date:

Sunday, December 23, 2012

  Actual Average Record
Temperature  
Mean Temperature 38 °F -  
Max Temperature 46 °F 46 °F 67 °F (1990)
Min Temperature 29 °F 28 °F 2 °F (1989)
Degree Days  
Heating Degree Days 28    
Moisture  
Dew Point 24 °F    
Average Humidity 62    
Maximum Humidity 77    
Minimum Humidity 35    
Precipitation  
Precipitation 0.00 in - - ()
Sea Level Pressure  
Sea Level Pressure 29.99 in    
Wind  
Wind Speed 7 mph (SW)    
Max Wind Speed 16 mph    
Max Gust Speed -    
Visibility 10 miles    
Events      
Averages and records for this station are not official NWS values.
T = Trace of Precipitation, MM = Missing Value Source: NWS Daily Summary

Daily Weather History Graph

Daily Weather History Graph

Search for Another Location

Airport:

Trip Planner

Search our weather history database for the weather conditions in past years. The results will help you decide how hot, cold, wet, or windy it might be!

Date:

Astronomy

Dec. 23, 2012 Rise Set
Actual Time 7:18 AM EST 4:43 PM EST
Civil Twilight 6:48 AM EST 5:13 PM EST
Nautical Twilight 6:14 AM EST 5:47 PM EST
Astronomical Twilight 5:42 AM EST 6:20 PM EST
Moon 1:32 PM EST (12/23) 3:00 AM EST (12/23)
Length of Visible Light 10h 25m
Length of Day
9h 25m
Waxing Gibbous, 81% of the Moon is Illuminated
Dec 23
Waxing Gibbous
Dec 28
Full
Jan 4
Last Quarter
Jan 11
New
Jan 18
First Quarter

Hourly Weather History & Observations

Time (EST) Temp. Windchill Dew Point Humidity Pressure Visibility Wind Dir Wind Speed Gust Speed Precip Events Conditions
12:55 AM 31.8 °F 26.2 °F 23.2 °F 70% 30.00 in 10.0 mi WSW 5.8 mph - N/A   Clear
1:55 AM 31.8 °F 25.4 °F 22.8 °F 69% 30.02 in 10.0 mi WSW 6.9 mph - N/A   Clear
2:55 AM 31.5 °F 24.2 °F 22.5 °F 69% 30.03 in 10.0 mi West 8.1 mph - N/A   Clear
3:55 AM 30.6 °F 24.7 °F 22.3 °F 71% 30.03 in 10.0 mi WSW 5.8 mph - N/A   Clear
4:55 AM 29.1 °F 23.0 °F 22.5 °F 76% 30.04 in 10.0 mi SW 5.8 mph - N/A   Clear
5:55 AM 29.1 °F 22.1 °F 22.6 °F 77% 30.05 in 10.0 mi WSW 6.9 mph - N/A   Clear
6:55 AM 29.3 °F 22.3 °F 22.5 °F 76% 30.05 in 10.0 mi SW 6.9 mph - N/A   Clear
7:55 AM 30.2 °F 23.4 °F 22.5 °F 73% 30.06 in 10.0 mi WSW 6.9 mph - N/A   Clear
8:55 AM 33.6 °F 27.5 °F 22.1 °F 63% 30.07 in 10.0 mi WSW 6.9 mph - N/A   Clear
9:55 AM 37.0 °F 31.6 °F 21.4 °F 53% 30.06 in 10.0 mi West 6.9 mph - N/A   Clear
10:55 AM 40.3 °F 34.4 °F 21.0 °F 46% 30.03 in 10.0 mi WSW 9.2 mph - N/A   Clear
11:55 AM 43.3 °F 37.7 °F 20.8 °F 41% 29.99 in 10.0 mi SW 10.4 mph - N/A   Clear
12:55 PM 45.7 °F 40.2 °F 19.6 °F 35% 29.96 in 10.0 mi WSW 11.5 mph - N/A   Clear
1:55 PM 46.2 °F 40.1 °F 22.3 °F 39% 29.94 in 10.0 mi South 13.8 mph - N/A   Clear
2:55 PM 46.4 °F 39.8 °F 21.6 °F 37% 29.92 in 10.0 mi SSW 16.1 mph - N/A   Clear
3:55 PM 44.4 °F 38.2 °F 25.2 °F 47% 29.92 in 10.0 mi South 12.7 mph - N/A   Clear
4:55 PM 41.0 °F 35.2 °F 25.3 °F 54% 29.94 in 10.0 mi SSW 9.2 mph - N/A   Clear
5:55 PM 37.6 °F 33.1 °F 25.2 °F 61% 29.93 in 10.0 mi South 5.8 mph - N/A   Clear
6:55 PM 37.6 °F 35.1 °F 25.3 °F 61% 29.94 in 10.0 mi South 3.5 mph - N/A   Clear
7:55 PM 36.5 °F 31.8 °F 27.0 °F 68% 29.95 in 10.0 mi SSW 5.8 mph - N/A   Clear
8:55 PM 36.0 °F 31.1 °F 27.3 °F 71% 29.95 in 10.0 mi South 5.8 mph - N/A   Clear
9:55 PM 35.1 °F 30.1 °F 27.9 °F 75% 29.96 in 10.0 mi SSW 5.8 mph - N/A   Clear
10:55 PM 34.9 °F 29.0 °F 28.4 °F 77% 29.97 in 10.0 mi SSW 6.9 mph - N/A   Clear
11:55 PM 34.3 °F 28.4 °F 27.9 °F 77% 29.98 in 10.0 mi WSW 6.9 mph - N/A   Clear